Regional Weather Roundup
Issued by NWS

Home | Current Version | Previous Version | Graphics & Text | Print | Product List | Glossary On
Versions: 1 2 3 4 5 6 7 8 9 10 11 12 13 14 15 16 17 18 19 20 21 22 23 24 25 26 27 28 29 30 31 32 33 34 35 36 37 38 39 40 41 42 43 44 45 46 47 48 49 50
000
ASUS43 KOAX 221002
RWRNE

WEATHER ROUNDUP FOR NEBRASKA
NATIONAL WEATHER SERVICE OMAHA NE
500 AM CDT TUE JUL 22 2014

NOTES: SATELLITE DATA IS BEING USED TO AUGMENT CLOUD COVER ABOVE
       12000 FEET.
       "FAIR" INDICATES FEW OR NO CLOUDS BELOW 12,000 FEET WITH NO
       SIGNIFICANT WEATHER AND/OR OBSTRUCTIONS TO VISIBILITY.

  * THESE STATIONS DO NOT REPORT WEATHER SUCH AS RAIN...SNOW OR FOG.

NEZ001>004-019>022-054>056-221100-
NEBRASKA PANHANDLE

CITY           SKY/WX    TMP DP  RH WIND       PRES   REMARKS
SCOTTSBLUFF    CLEAR     70  58  65 NE17      30.13R
ALLIANCE       CLEAR     70  61  73 NE13      30.13R
CHADRON        PTCLDY    66  61  84 NE3       30.13S
KIMBALL        CLEAR     67  46  47 W12       30.19R
SIDNEY         CLEAR     68  50  52 N15G26    30.14R
$$

NEZ057>060-069>072-079>082-221100-
SOUTHWEST NEBRASKA

CITY           SKY/WX    TMP DP  RH WIND       PRES   REMARKS
NORTH PLATTE   PTCLDY    74  60  61 NW7       30.06R
IMPERIAL       PTCLDY    68  60  75 W7        30.02F
LEXINGTON      MOCLDY    72  64  76 NW13      30.07R
MCCOOK         CLEAR     68  63  84 W7        30.02S
OGALLALA       CLOUDY    73  61  67 E9        30.07R
$$

NEZ005>010-023>029-035>040-094-221100-
NORTH CENTRAL NEBRASKA

CITY           SKY/WX    TMP DP  RH WIND       PRES   REMARKS
VALENTINE      CLOUDY    71  65  81 CALM      30.11R
AINSWORTH      CLOUDY    69  63  81 CALM      30.08R
BROKEN BOW     PTCLDY    78  58  49 N22       30.04R
O`NEILL        MOCLDY    75  57  54 N24G31    30.04R
THEDFORD       PTCLDY    75  64  67 N13G18    30.12R
$$

NEZ041-046>049-061>064-073>077-083>087-221100-
SOUTH CENTRAL NEBRASKA

CITY           SKY/WX    TMP DP  RH WIND       PRES   REMARKS
GRAND ISLAND   MOCLDY    81  66  60 W12       29.97R
AURORA         MOCLDY    79  72  78 W8        29.96R
HASTINGS         N/A     74  66  76 SW5       29.99R
HEBRON         CLEAR     75  67  77 W3        29.97R
HOLDREGE       PTCLDY    71  62  74 W5        30.01S
KEARNEY *      CLOUDY    79  63  57 SW10      30.00R
YORK           PTCLDY    77  72  83 NW8       29.95R
$$

NEZ011>018-030>034-042>045-221100-
NORTHEAST NEBRASKA

CITY           SKY/WX    TMP DP  RH WIND       PRES   REMARKS
NORFOLK        PTCLDY    78  67  68 W9G20     29.94R
ALBION         PTCLDY    74  65  74 NW5       29.96R
BLAIR          CLOUDY    83  67  59 SW9       29.91R
COLUMBUS *     MOCLDY    79  68  69 SW5       29.94R
FREMONT        CLOUDY    86  70  59 SW9       29.91R HX  91
TEKAMAH        MOCLDY    82  72  71 S9        29.88R
WAYNE          PTCLDY    76  72  85 NW12      29.93R
$$

NEZ050>053-065>068-078-088>093-221100-
SOUTHEAST NEBRASKA

CITY           SKY/WX    TMP DP  RH WIND       PRES   REMARKS
LINCOLN        PTCLDY    80  68  66 CALM      29.94R
OMAHA EPPLEY   CLOUDY    87  69  54 S7        29.90R HX  91
BEATRICE       CLEAR     71  68  90 S5        29.95S
FALLS CITY     PTCLDY    78  74  87 S6        29.93F
NEBRASKA CITY  MOCLDY    79  72  78 SW14      29.92R
PLATTSMOUTH    MOCLDY    82  68  62 SW5       29.92R
$$

NEZ044-045-051>053-067-221100-
OMAHA AREA

CITY           SKY/WX    TMP DP  RH WIND       PRES   REMARKS
OMAHA EPPLEY   CLOUDY    87  69  54 S7        29.90R HX  91
BLAIR          CLOUDY    83  67  59 SW9       29.91R
FREMONT        CLOUDY    86  70  59 SW9       29.91R HX  91
MILLARD        CLOUDY    85  71  61 SW8       29.90R HX  90
OFFUTT AFB     CLOUDY    81  73  76 CALM      29.90R
PLATTSMOUTH    MOCLDY    82  68  62 SW5       29.92R
WAHOO          FAIR      80  70  71 CALM      29.91S
$$



USA.gov is the U.S. government's official web portal to all federal, state and local government web resources and services.